Home   Weather   Asuncion   Past weeks
Flag for Paraguay

Past Weather in Asuncion, Paraguay — Yesterday and Last 2 Weeks

Now
73 °F

Sunny.


Feels Like: 77 °F
Forecast: 71 / 53 °F
Wind: 6 mph from North

Location: Asuncion / Aeropuerto

Current Time: Jun 20, 2019 at 1:40:14 pm

Latest Report: Jun 20, 2019 at 1:00 pm


Visibility: 10 mi

Pressure: 30.15 "Hg

Humidity: 41%

Dew Point: 48 °F

Location of AsuncionLocation

Past Weather in Asuncion — Graph

°F

Asuncion Temperature Yesterday

Maximum temperature yesterday: 63 °F (at 12:00 am)
Minimum temperature yesterday: 61 °F (at 2:00 am)
Average temperature yesterday: 62 °F

High & Low Weather Summary for the Past Weeks

 TemperatureHumidityPressure
High86 °F (Jun 12, 1:00 pm)100% (Jun 8, 11:00 pm)30.24 "Hg (Jun 8, 11:00 pm)
Low54 °F (Jun 20, 2:00 am)41% (Jun 20, 12:00 pm)29.80 "Hg (Jun 12, 2:00 pm)
Average71 °F74%30.00 "Hg
* Reported Jun 5 12:00 pm — Jun 20 12:00 pm, Asuncion. Weather by CustomWeather, © 2019

Note: Actual official high and low records may vary slightly from our data, if they occured in-between our weather recording intervals... More about our weather records

Advertising

Asuncion Weather History for the Previous 24 Hours

Scroll right to see more
 ConditionsComfort  
Time TempWeatherWind HumidityBarometerVisibility
12:00 pm
Thu, Jun 20
72 °FSunny.6 mph41%30.18 "Hg10 mi
11:00 am70 °FSunny.6 mph43%30.21 "Hg10 mi
10:00 am68 °FPassing clouds.6 mph43%30.21 "HgN/A
9:30 am66 °FSunny.3 mph46%30.24 "Hg10 mi
9:00 am64 °FSunny.2 mph52%30.24 "Hg10 mi
8:30 am61 °FSunny.No wind68%30.21 "Hg10 mi
8:00 am59 °FPassing clouds.2 mph68%30.21 "HgN/A
7:30 am55 °FPassing clouds.5 mph82%30.21 "HgN/A
7:00 am54 °FPassing clouds.2 mph82%30.18 "HgN/A
6:00 am55 °FClear.5 mph88%30.18 "Hg10 mi
5:00 am55 °FClear.5 mph82%30.18 "Hg10 mi
4:00 am54 °FClear.5 mph88%30.18 "Hg10 mi
3:00 am54 °FClear.No wind88%30.15 "Hg10 mi
2:00 am54 °FClear.5 mph88%30.18 "Hg10 mi
1:00 am55 °FClear.5 mph82%30.18 "Hg10 mi
12:00 am57 °FClear.No wind82%30.15 "Hg10 mi
11:00 pm
Wed, Jun 19
61 °FClear.No wind77%30.18 "Hg10 mi
10:00 pm63 °FClear.6 mph73%30.18 "Hg10 mi
9:00 pm61 °FClear.6 mph77%30.18 "Hg10 mi
8:00 pm61 °FPassing clouds.7 mph77%30.15 "HgN/A
7:00 pm63 °FPartly cloudy.7 mph73%30.15 "HgN/A
6:00 pm63 °FPassing clouds.6 mph73%30.15 "HgN/A
5:00 pm63 °FPartly sunny.8 mph73%30.15 "HgN/A
4:00 pm63 °FPartly sunny.9 mph68%30.15 "HgN/A
3:00 pm63 °FBroken clouds.3 mph77%30.12 "HgN/A
2:00 pm63 °FOvercast.10 mph83%30.15 "HgN/A
1:00 pm63 °FOvercast.9 mph83%30.15 "HgN/A
Weather by CustomWeather, © 2019

See weather overview